Weather History for KMMH - June, 2013

Change the Weather History Date:

Monday, June 10, 2013

  Actual Average (KBIH) Record (KBIH)
Temperature  
Mean Temperature 56 °F 70 °F  
Max Temperature 73 °F 90 °F 102 °F (1949)
Min Temperature 39 °F 50 °F 32 °F (1954)
Degree Days  
Heating Degree Days 9 1  
Month to date heating degree days 13  
Since 1 June heating degree days 13  
Since 1 July heating degree days 4171  
Cooling Degree Days 0 6  
Month to date cooling degree days 51  
Year to date cooling degree days 119  
Since 1 June cooling degree days 51  
Growing Degree Days 6 (Base 50)    
Moisture  
Dew Point 32 °F    
Average Humidity 39    
Maximum Humidity 76    
Minimum Humidity 13    
Precipitation  
Precipitation 0.00 in 0.01 in 0.17 in (1976)
Month to date precipitation 0.08  
Year to date precipitation 2.96  
Snow  
Snow 0.00 in 0.00 in - ()
Month to date snowfall 0.0  
Since 1 June snowfall 0.0  
Since 1 July snowfall 8.0  
Snow Depth -    
Sea Level Pressure  
Sea Level Pressure 30.06 in    
Wind  
Wind Speed 7 mph (SW)    
Max Wind Speed 32 mph    
Max Gust Speed 45 mph    
Visibility 10 miles    
Events      
T = Trace of Precipitation, MM = Missing Value Source: NWS Daily Summary

Daily Weather History Graph

Daily Weather History Graph

Search for Another Location

Airport or City:

Trip Planner

Search our weather history database for the weather conditions in past years. The results will help you decide how hot, cold, wet, or windy it might be!

Date:

Astronomy

Jun. 10, 2013 Rise Set
Actual Time 5:33 AM PDT 8:16 PM PDT
Civil Twilight 5:02 AM PDT 8:47 PM PDT
Nautical Twilight 4:23 AM PDT 9:26 PM PDT
Astronomical Twilight 3:39 AM PDT 10:10 PM PDT
Moon 7:24 AM PDT (6/10) 9:48 PM PDT (6/10)
Length of Visible Light 15h 45m
Length of Day
14h 43m
Waxing Crescent, 4% of the Moon is Illuminated
Jun 10
Waxing Crescent
Jun 16
First Quarter
Jun 23
Full
Jun 29
Last Quarter
Jul 8
New

Hourly Weather History & Observations

Time (PDT) Temp. Windchill Dew Point Humidity Pressure Visibility Wind Dir Wind Speed Gust Speed Precip Events Conditions
12:15 AM 53.6 °F - 35.6 °F 51% 30.11 in 10.0 mi Calm Calm - N/A   Clear
12:35 AM 51.8 °F - 35.6 °F 54% 30.10 in 10.0 mi Calm Calm - N/A   Clear
12:55 AM 51.8 °F - 37.4 °F 58% 30.10 in 10.0 mi Calm Calm - N/A   Clear
1:35 AM 50.0 °F - 35.6 °F 58% 30.09 in 10.0 mi North 3.5 mph - N/A   Clear
1:55 AM 48.2 °F - 35.6 °F 62% 30.08 in 10.0 mi Calm Calm - N/A   Clear
2:15 AM 44.6 °F 43.1 °F 30.2 °F 57% 30.08 in 10.0 mi NNW 3.5 mph - N/A   Clear
2:35 AM 44.6 °F 42.2 °F 30.2 °F 57% 30.08 in 10.0 mi NNW 4.6 mph - N/A   Clear
2:55 AM 48.2 °F - 30.2 °F 50% 30.08 in 10.0 mi North 3.5 mph - N/A   Clear
3:15 AM 50.0 °F - 32.0 °F 50% 30.07 in 10.0 mi Calm Calm - N/A   Clear
3:35 AM 46.4 °F - 32.0 °F 57% 30.07 in 10.0 mi Calm Calm - N/A   Clear
3:55 AM 50.0 °F - 33.8 °F 54% 30.07 in 10.0 mi SE 4.6 mph - N/A   Clear
4:15 AM 50.0 °F - 35.6 °F 58% 30.06 in 10.0 mi WSW 4.6 mph - N/A   Clear
4:35 AM 48.2 °F - 33.8 °F 58% 30.05 in 10.0 mi Calm Calm - N/A   Clear
4:55 AM 48.2 °F - 35.6 °F 62% 30.05 in 10.0 mi South 6.9 mph - N/A   Clear
5:15 AM 44.6 °F - 35.6 °F 71% 30.05 in 10.0 mi Calm Calm - N/A   Clear
5:35 AM 42.8 °F - 33.8 °F 70% 30.05 in 10.0 mi Calm Calm - N/A   Clear
5:55 AM 39.2 °F - 32.0 °F 75% 30.05 in 10.0 mi Calm Calm - N/A   Clear
6:15 AM 41.0 °F - 33.8 °F 76% 30.05 in 10.0 mi Calm Calm - N/A   Clear
6:35 AM 44.6 °F - 37.4 °F 76% 30.05 in 10.0 mi Calm Calm - N/A   Clear
6:55 AM 53.6 °F - 41.0 °F 62% 30.06 in 10.0 mi Calm Calm - N/A   Clear
7:15 AM 53.6 °F - 41.0 °F 62% 30.05 in 10.0 mi Calm Calm - N/A   Clear
7:35 AM 59.0 °F - 35.6 °F 42% 30.05 in 10.0 mi Calm Calm - N/A   Clear
7:55 AM 60.8 °F - 32.0 °F 34% 30.06 in 10.0 mi SSE 3.5 mph - N/A   Clear
8:15 AM 62.6 °F - 30.2 °F 30% 30.06 in 10.0 mi Calm Calm - N/A   Clear
8:35 AM 64.4 °F - 26.6 °F 24% 30.06 in 10.0 mi Calm Calm - N/A   Clear
8:55 AM 66.2 °F - 21.2 °F 18% 30.05 in 10.0 mi Calm Calm - N/A   Clear
9:15 AM 66.2 °F - 17.6 °F 15% 30.05 in 10.0 mi ESE 3.5 mph - N/A   Clear
9:35 AM 68.0 °F - 15.8 °F 13% 30.04 in 10.0 mi ESE 6.9 mph - N/A   Clear
9:55 AM 68.0 °F - 15.8 °F 13% 30.04 in 10.0 mi Calm Calm - N/A   Clear
10:15 AM 69.8 °F - 17.6 °F 14% 30.03 in 10.0 mi ESE 10.4 mph 20.7 mph N/A   Clear
10:35 AM 71.6 °F - 17.6 °F 13% 30.02 in 10.0 mi ESE 12.7 mph 20.7 mph N/A   Clear
10:55 AM 71.6 °F - 17.6 °F 13% 30.02 in 10.0 mi East 16.1 mph 24.2 mph N/A   Clear
11:15 AM 73.4 °F - 19.4 °F 13% 30.01 in 10.0 mi ESE 15.0 mph 24.2 mph N/A   Clear
11:35 AM 73.4 °F - 21.2 °F 14% 30.01 in 10.0 mi ESE 12.7 mph 24.2 mph N/A   Clear
11:55 AM 69.8 °F - 19.4 °F 15% 30.01 in 10.0 mi East 8.1 mph 19.6 mph N/A   Clear
12:15 PM 68.0 °F - 28.4 °F 23% 30.01 in 10.0 mi South 15.0 mph 25.3 mph N/A   Clear
12:35 PM 66.2 °F - 30.2 °F 26% 30.01 in 10.0 mi SSW 17.3 mph 32.2 mph N/A   Scattered Clouds
12:55 PM 68.0 °F - 28.4 °F 23% 30.01 in 10.0 mi SSW 15.0 mph 25.3 mph N/A   Clear
1:15 PM 68.0 °F - 28.4 °F 23% 30.01 in 10.0 mi SSW 18.4 mph 25.3 mph N/A   Clear
1:35 PM 66.2 °F - 32.0 °F 28% 30.01 in 10.0 mi SSW 23.0 mph 29.9 mph N/A   Clear
1:55 PM 64.4 °F - 32.0 °F 30% 30.02 in 10.0 mi SSW 27.6 mph 38.0 mph N/A   Clear
2:15 PM 62.6 °F - 32.0 °F 32% 30.02 in 10.0 mi SSW 32.2 mph 44.9 mph N/A   Clear
2:35 PM 60.8 °F - 32.0 °F 34% 30.02 in 10.0 mi SSW 27.6 mph 43.7 mph N/A   Clear
2:55 PM 62.6 °F - 30.2 °F 30% 30.02 in 10.0 mi SSW 24.2 mph 43.7 mph N/A   Clear
3:15 PM 64.4 °F - 32.0 °F 30% 30.04 in 10.0 mi WSW 11.5 mph 32.2 mph N/A   Scattered Clouds
3:35 PM 66.2 °F - 30.2 °F 26% 30.03 in 10.0 mi SSW 26.5 mph 35.7 mph N/A   Scattered Clouds
3:55 PM 64.4 °F - 32.0 °F 30% 30.04 in 10.0 mi SSW 27.6 mph 39.1 mph N/A   Clear
4:15 PM 66.2 °F - 32.0 °F 28% 30.05 in 10.0 mi SW 18.4 mph 26.5 mph N/A   Clear
4:35 PM 66.2 °F - 30.2 °F 26% 30.06 in 10.0 mi WSW 16.1 mph 26.5 mph N/A   Clear
4:55 PM 66.2 °F - 32.0 °F 28% 30.06 in 10.0 mi WSW 17.3 mph 29.9 mph N/A   Clear
5:15 PM 66.2 °F - 32.0 °F 28% 30.06 in 10.0 mi West 20.7 mph 29.9 mph N/A   Clear
5:35 PM 66.2 °F - 32.0 °F 28% 30.05 in 10.0 mi West 12.7 mph 24.2 mph N/A   Clear
5:55 PM 66.2 °F - 33.8 °F 30% 30.05 in 10.0 mi WSW 18.4 mph 33.4 mph N/A   Clear
6:15 PM 66.2 °F - 33.8 °F 30% 30.05 in 10.0 mi WSW 15.0 mph 23.0 mph N/A   Clear
6:35 PM 66.2 °F - 33.8 °F 30% 30.06 in 10.0 mi West 17.3 mph 23.0 mph N/A   Clear
6:55 PM 64.4 °F - 33.8 °F 32% 30.06 in 10.0 mi West 17.3 mph 26.5 mph N/A   Clear
7:15 PM 62.6 °F - 33.8 °F 34% 30.07 in 10.0 mi WNW 17.3 mph 28.8 mph N/A   Clear
7:35 PM 60.8 °F - 35.6 °F 39% 30.07 in 10.0 mi SW 12.7 mph 21.9 mph N/A   Clear
7:55 PM 60.8 °F - 37.4 °F 42% 30.06 in 10.0 mi SSW 15.0 mph 25.3 mph N/A   Scattered Clouds
8:15 PM 60.8 °F - 35.6 °F 39% 30.07 in 10.0 mi NW 9.2 mph 20.7 mph N/A   Mostly Cloudy
8:35 PM 59.0 °F - 37.4 °F 45% 30.08 in 10.0 mi WNW 18.4 mph 25.3 mph N/A   Mostly Cloudy
8:55 PM 59.0 °F - 39.2 °F 48% 30.10 in 10.0 mi WNW 18.4 mph 24.2 mph N/A   Overcast
9:15 PM 60.8 °F - 35.6 °F 39% 30.11 in 10.0 mi WNW 16.1 mph 24.2 mph N/A   Mostly Cloudy
9:35 PM 60.8 °F - 35.6 °F 39% 30.12 in 10.0 mi WSW 9.2 mph 16.1 mph N/A   Mostly Cloudy
9:55 PM 60.8 °F - 35.6 °F 39% 30.13 in 10.0 mi Calm Calm - N/A   Mostly Cloudy
10:15 PM 59.0 °F - 35.6 °F 42% 30.13 in 10.0 mi SW 9.2 mph - N/A   Scattered Clouds
10:35 PM 57.2 °F - 37.4 °F 48% 30.14 in 10.0 mi WSW 5.8 mph - N/A   Scattered Clouds
10:55 PM 57.2 °F - 37.4 °F 48% 30.14 in 10.0 mi WNW 6.9 mph - N/A   Mostly Cloudy
11:15 PM 59.0 °F - 37.4 °F 45% 30.14 in 10.0 mi West 4.6 mph - N/A   Overcast
11:35 PM 55.4 °F - 37.4 °F 51% 30.14 in 10.0 mi NW 9.2 mph - N/A   Scattered Clouds
11:55 PM 57.2 °F - 35.6 °F 44% 30.13 in 10.0 mi West 12.7 mph 20.7 mph N/A   Clear